Location: Unspecified
(41.2117°S, 174.8584°E)
Time: 16:13:55
(UTC+12:00)

ISS - Visible Passes

Search period start: 19 July 2019 00:00
Search period end: 29 July 2019 00:00
Orbit: 409 x 418 km, 51.6° (Epoch: 19 July)

Date Brightness Start Highest point End Pass type
(mag) Time Alt. Az. Time Alt. Az. Time Alt. Az.
23 Jul -1.3 06:32:18 10° N 06:35:06 25° NE 06:37:56 10° ESE visible
24 Jul -0.7 05:44:07 10° NNE 05:45:59 14° NE 05:47:52 10° E visible
25 Jul -3.5 06:29:37 10° NW 06:32:57 69° NE 06:36:21 10° ESE visible
26 Jul -2.4 05:42:31 27° N 05:43:41 37° NE 05:46:51 10° ESE visible
27 Jul -0.7 04:55:55 16° E 04:55:55 16° E 04:57:07 10° E visible
27 Jul -3.4 06:28:49 19° W 06:30:57 47° SSW 06:34:16 10° SE visible
28 Jul -3.6 05:41:58 64° SSE 05:41:58 64° SSE 05:44:57 10° SE visible
